TimeCET,TemperatureF,Dew PointF,Humidity,Sea Level PressureIn,VisibilityMPH,Wind Direction,Wind SpeedMPH,Gust SpeedMPH,PrecipitationIn,Events,Conditions,WindDirDegrees,DateUTC
12:00 AM,49,47,88,,,ENE,8.1,,,,,60,2013-11-12 23:00:00
12:00 AM,48.2,46.4,93,30.27,6.2,East,6.9,-,N/A,,Mostly Cloudy,80,2013-11-12 23:00:00
12:30 AM,48.2,46.4,93,30.27,6.2,East,11.5,-,N/A,,Overcast,80,2013-11-12 23:30:00
1:00 AM,49,46,87,,7,ENE,10.4,,,,Overcast,70,2013-11-13 00:00:00
1:00 AM,48.2,46.4,93,30.27,6.2,East,10.4,-,N/A,,Mostly Cloudy,90,2013-11-13 00:00:00
1:30 AM,48.2,46.4,93,30.27,6.2,East,6.9,-,N/A,,Mostly Cloudy,90,2013-11-13 00:30:00
2:00 AM,49,46,86,,,ENE,4.6,,,,,70,2013-11-13 01:00:00
2:00 AM,48.2,46.4,93,30.27,6.2,ENE,5.8,-,N/A,,Mostly Cloudy,70,2013-11-13 01:00:00
2:30 AM,48.2,46.4,93,30.27,6.2,East,11.5,-,N/A,,Mostly Cloudy,90,2013-11-13 01:30:00
3:00 AM,49,46,83,,,East,9.2,,,,,80,2013-11-13 02:00:00
3:00 AM,48.2,46.4,93,30.27,6.2,East,8.1,-,N/A,,Overcast,100,2013-11-13 02:00:00
3:30 AM,48.2,46.4,93,30.24,6.2,East,4.6,-,N/A,,Overcast,100,2013-11-13 02:30:00
4:00 AM,48.2,46.4,93,30.24,6.2,ENE,6.9,-,N/A,,Overcast,70,2013-11-13 03:00:00
4:30 AM,48.2,46.4,93,30.24,6.2,ENE,9.2,-,N/A,,Overcast,70,2013-11-13 03:30:00
5:00 AM,48,45,87,,,NE,11.5,,,,,40,2013-11-13 04:00:00
5:00 AM,48.2,46.4,93,30.27,6.2,NE,11.5,-,N/A,,Overcast,50,2013-11-13 04:00:00
5:30 AM,48.2,46.4,93,30.24,6.2,ENE,10.4,-,N/A,,Overcast,60,2013-11-13 04:30:00
6:00 AM,48,45,84,,,NE,13.8,,,,,40,2013-11-13 05:00:00
6:00 AM,48.2,44.6,87,30.24,6.2,ENE,10.4,-,N/A,,Overcast,70,2013-11-13 05:00:00
6:30 AM,48.2,44.6,87,30.24,6.2,ENE,10.4,-,N/A,,Mostly Cloudy,60,2013-11-13 05:30:00
7:00 AM,49,44,79,,9,NE,13.8,,,,Overcast,50,2013-11-13 06:00:00
7:00 AM,48.2,44.6,87,30.24,6.2,ENE,11.5,-,N/A,,Mostly Cloudy,70,2013-11-13 06:00:00
7:30 AM,48.2,44.6,87,30.27,6.2,ENE,12.7,-,N/A,,Mostly Cloudy,70,2013-11-13 06:30:00
8:00 AM,49,45,80,,,ENE,12.7,,,,,70,2013-11-13 07:00:00
8:00 AM,50.0,44.6,82,30.27,6.2,East,12.7,-,N/A,,Mostly Cloudy,80,2013-11-13 07:00:00
8:30 AM,48.2,44.6,87,30.27,6.2,East,13.8,-,N/A,,Mostly Cloudy,80,2013-11-13 07:30:00
9:00 AM,47,43,82,,,ENE,11.5,,,,,60,2013-11-13 08:00:00
9:00 AM,46.4,42.8,87,30.30,6.2,ENE,11.5,-,N/A,,Partly Cloudy,60,2013-11-13 08:00:00
9:30 AM,48.2,44.6,87,30.30,6.2,ENE,10.4,-,N/A,,Partly Cloudy,70,2013-11-13 08:30:00
10:00 AM,48.2,44.6,87,30.33,6.2,ENE,12.7,-,N/A,,Mostly Cloudy,70,2013-11-13 09:00:00
10:30 AM,50.0,44.6,82,30.30,6.2,East,11.5,-,N/A,,Partly Cloudy,90,2013-11-13 09:30:00
11:00 AM,53,44,64,,,East,15.0,,,,,80,2013-11-13 10:00:00
11:00 AM,51.8,44.6,76,30.30,6.2,East,13.8,-,N/A,,Scattered Clouds,90,2013-11-13 10:00:00
11:30 AM,53.6,44.6,72,30.33,6.2,ENE,11.5,-,N/A,,Scattered Clouds,70,2013-11-13 10:30:00
12:00 PM,54,45,63,,,ENE,13.8,,,,,60,2013-11-13 11:00:00
12:00 PM,53.6,46.4,77,30.33,6.2,ENE,12.7,-,N/A,,Mostly Cloudy,70,2013-11-13 11:00:00
12:30 PM,55.4,46.4,72,30.30,6.2,ENE,16.1,-,N/A,,Mostly Cloudy,60,2013-11-13 11:30:00
1:00 PM,56,45,56,,12,NE,17.3,,,,Mostly Cloudy,50,2013-11-13 12:00:00
1:00 PM,55.4,46.4,72,30.30,6.2,ENE,15.0,-,N/A,,Mostly Cloudy,60,2013-11-13 12:00:00
1:30 PM,57.2,44.6,63,30.30,6.2,ENE,17.3,-,N/A,,Mostly Cloudy,60,2013-11-13 12:30:00
2:00 PM,57,45,54,,,NE,16.1,,,,,50,2013-11-13 13:00:00
2:00 PM,57.2,46.4,67,30.27,6.2,NE,16.1,-,N/A,,Mostly Cloudy,50,2013-11-13 13:00:00
2:30 PM,57.2,46.4,67,30.27,6.2,ENE,16.1,-,N/A,,Mostly Cloudy,60,2013-11-13 13:30:00
3:00 PM,58,44,49,,,NE,17.3,,,,,50,2013-11-13 14:00:00
3:00 PM,57.2,44.6,63,30.27,6.2,ENE,15.0,-,N/A,,Mostly Cloudy,60,2013-11-13 14:00:00
3:30 PM,57.2,44.6,63,30.27,6.2,ENE,16.1,-,N/A,,Mostly Cloudy,60,2013-11-13 14:30:00
4:00 PM,59.0,42.8,55,30.27,6.2,ENE,15.0,-,N/A,,Mostly Cloudy,70,2013-11-13 15:00:00
4:30 PM,59.0,42.8,55,30.27,6.2,ENE,15.0,-,N/A,,Mostly Cloudy,60,2013-11-13 15:30:00
5:00 PM,58,43,47,,,ENE,13.8,,,,,60,2013-11-13 16:00:00
5:00 PM,57.2,44.6,63,30.27,6.2,ENE,13.8,-,N/A,,Mostly Cloudy,60,2013-11-13 16:00:00
5:30 PM,55.4,42.8,63,30.27,6.2,ENE,10.4,-,N/A,,Scattered Clouds,60,2013-11-13 16:30:00
6:00 PM,55,43,53,,,ENE,13.8,,,,,60,2013-11-13 17:00:00
6:00 PM,55.4,42.8,63,30.27,6.2,ENE,10.4,-,N/A,,Scattered Clouds,60,2013-11-13 17:00:00
6:30 PM,53.6,44.6,72,30.30,6.2,ENE,11.5,-,N/A,,Partly Cloudy,70,2013-11-13 17:30:00
7:00 PM,52,43,63,,12,East,10.4,,,,Scattered Clouds,80,2013-11-13 18:00:00
7:00 PM,51.8,44.6,76,30.30,6.2,East,9.2,-,N/A,,Partly Cloudy,80,2013-11-13 18:00:00
7:30 PM,50.0,42.8,76,30.30,6.2,East,6.9,-,N/A,,Partly Cloudy,80,2013-11-13 18:30:00
8:00 PM,50,43,68,,,NE,11.5,,,,,50,2013-11-13 19:00:00
8:00 PM,50.0,42.8,76,30.30,6.2,ENE,12.7,-,N/A,,Partly Cloudy,60,2013-11-13 19:00:00
8:30 PM,50.0,42.8,76,30.33,6.2,NE,12.7,-,N/A,,Partly Cloudy,50,2013-11-13 19:30:00
9:00 PM,49,43,71,,,ENE,16.1,,,,,70,2013-11-13 20:00:00
9:00 PM,50.0,42.8,76,30.33,6.2,ENE,16.1,-,N/A,,Partly Cloudy,70,2013-11-13 20:00:00
9:30 PM,48.2,42.8,82,30.33,6.2,East,15.0,-,N/A,,Partly Cloudy,80,2013-11-13 20:30:00
10:00 PM,48.2,42.8,82,30.36,6.2,East,11.5,-,N/A,,Partly Cloudy,80,2013-11-13 21:00:00
10:30 PM,48.2,42.8,82,30.36,-9999.0,ENE,11.5,-,N/A,,Clear,70,2013-11-13 21:30:00
11:00 PM,46,41,78,,,ESE,5.8,,,,,110,2013-11-13 22:00:00
11:00 PM,46.4,42.8,87,30.36,-9999.0,ESE,4.6,-,N/A,,Clear,110,2013-11-13 22:00:00
11:30 PM,44.6,41.0,87,30.36,-9999.0,East,3.5,-,N/A,,Clear,90,2013-11-13 22:30:00